Location: Newark
(43.6583°N, 1.6617°E)
Time: 16:15:46
(UTC+00:00)

Tiros 1 - Pass Details

Date: 31 August 2019
Orbit: 630 x 664 km, 48.4° (Epoch: 23 October)

Event Time Altitude Azimuth Distance (km) Brightness Sun altitude
Rises 20:46:25 0° 240° (WSW) 2,911 10.8 -22.8°
Reaches altitude 10° 20:48:44 10° 240° (WSW) 2,004 9.9 -23.1°
Enters shadow 20:53:09 78° 191° (S) 646 6.9 -23.7°
